Flag for El Salvador Weather past 2 weeks in San Salvador, El Salvador

Now
70 °F

Sunny.


Feels Like: 70 °F
Forecast: 66 / 91 °F
Wind: 2 mph from North

Location: San Salvador / Ilopango

Current Time: Mar 5, 2015 at 8:55:29 AM

Latest Report: Mar 5, 2015 at 7:50 AM


Visibility: 10 mi

Pressure: 30.01 "Hg

Humidity: 88%

Dew point: 66 °F

Location of San SalvadorLocation

Historic Weather in San Salvador — Graph

°F

San Salvador temperature yesterday

Maximum temperature yesterday: 91 °F (at 2:00 PM)
Minimum temperature yesterday: 68 °F (at 6:50 AM)
Average temperature yesterday: 80 °F

Past Weeks' High & Low Weather Summary

 TemperatureHumidityPressure
High95 °F (Mar 2, 1:50 PM)94% (Feb 27, 6:50 AM)30.09 "Hg (Feb 27, 6:50 AM)
Low64 °F (Feb 19, 5:50 AM)34% (Mar 4, 2:00 PM)29.86 "Hg (Mar 4, 5:50 PM)
Average79 °F65%29.98 "Hg
* Reported Feb 18 7:50 AM — Mar 5 7:50 AM, San Salvador, Weather by CustomWeather, © 2015

Note: Actual official high and low records may vary slightly from our data, if they occured in-between our weather recording intervals... More about our weather records

Advertising

San Salvador weather history for previous 24 hours

 ConditionsComfort  
Time TempWeatherWind HumidityBarometerVisibility
7:50 AM
Thu, Mar 5
70 °FSunny.2 mph88%30.01 "Hg10 mi
6:50 AM66 °FSunny.No wind94%29.98 "Hg10 mi
5:50 AM66 °FClear.No wind94%29.95 "Hg10 mi
11:50 PM
Wed, Mar 4
72 °FClear.No wind78%29.95 "Hg10 mi
10:50 PM72 °FClear.No wind78%29.98 "Hg10 mi
9:50 PM73 °FClear.5 mph69%29.95 "Hg10 mi
8:50 PM75 °FClear.2 mph65%29.92 "Hg10 mi
7:50 PM75 °FClear.2 mph65%29.92 "Hg10 mi
6:50 PM77 °FClear.8 mph61%29.89 "Hg10 mi
5:50 PM81 °FSunny.16 mph58%29.86 "Hg10 mi
4:50 PM84 °FSunny.14 mph55%29.89 "Hg10 mi
3:50 PM88 °FPassing clouds.14 mph49%29.89 "HgN/A
2:50 PM91 °FPassing clouds.9 mph44%29.89 "HgN/A
2:00 PM91 °FHot.N/A34%29.92 "HgN/A
12:50 PM90 °FPassing clouds.8 mph38%29.95 "HgN/A
11:50 AM88 °FPassing clouds.9 mph46%29.98 "HgN/A
10:50 AM86 °FPassing clouds.7 mph52%30.01 "HgN/A
9:50 AM82 °FPassing clouds.7 mph58%30.01 "HgN/A
8:50 AM77 °FSunny.8 mph69%29.98 "Hg10 mi
Weather by CustomWeather, © 2015

See weather overviewHow to use our weather pages